Simultaneous Nadir Overpasses (SNOs) Predictions

Prediction of SNOs between AQUA and NPP Satellite Orbit:

Table of predicted SNOs for the next 14.0 days since TLE Epoch: 8/30/2014
Index Date (AQUA) Time (AQUA) Lat,Lon (AQUA) SZA (AQUA ) Date (NPP) Time (NPP) Lat,Lon (NPP) SZA (NPP ) Distance(km) Time Diff (sec)
1 08/31/2014 00:44:35 -46.04,-158.69 61.81 08/31/2014 00:43:40 -45.99,-158.50 61.75 15.82 55
2 08/31/2014 01:32:55 49.82, 10.45 114.70 08/31/2014 01:33:16 49.81, 10.43 114.67 1.64 21
3 08/31/2014 02:06:09 -69.12, -29.72 119.70 08/31/2014 02:07:22 -68.78, -31.87 120.05 93.64 73
4 09/02/2014 17:01:06 -46.01, -42.83 60.99 09/02/2014 17:00:40 -46.00, -42.73 60.97 7.62 26
5 09/02/2014 17:48:04 54.62, 128.54 111.00 09/02/2014 17:48:52 54.62, 128.56 110.92 1.47 48
6 09/05/2014 09:17:14 -47.31, 73.54 61.39 09/05/2014 09:17:17 -47.32, 73.57 61.41 2.07 3
7 09/05/2014 10:01:42 64.61,-108.93 102.28 09/05/2014 10:02:55 64.58,-108.58 102.11 17.26 73
8 09/08/2014 00:44:35 46.00, 21.29 120.61 09/08/2014 00:43:52 45.94, 21.47 120.66 15.75 43
9 09/08/2014 01:32:53 -50.24,-169.40 63.27 09/08/2014 01:33:25 -50.24,-169.41 63.32 0.81 32
10 09/10/2014 17:01:04 46.01, 137.17 121.41 09/10/2014 17:00:51 45.98, 137.26 121.41 7.08 13




NCC Satellite Simultaneous Nadir Overpasses (SNOs) Prediction Service
